| time (UTC) | temp C | wind direction | speed KPH | gust KPH | rain 1hr cm | rain 24hr cm | rain mn cm | humidity % | barometer mb |
| 20260901212227 | 18 | 235 | 1.6 | 9.7 | 0.00 | 0.00 | 0.00 | 74 | 1011.6 |
| 20260901211733 | 18 | 252 | 1.6 | 4.8 | 0.00 | 0.00 | 0.00 | 73 | 1011.6 |
| 20260901211220 | 18 | 276 | 1.6 | 6.4 | 0.00 | 0.00 | 0.00 | 74 | 1011.5 |
| 20260901210808 | 18 | 302 | 1.6 | 6.4 | 0.00 | 0.00 | 0.00 | 74 | 1011.7 |
| 20260901210304 | 18 | 262 | 3.2 | 6.4 | 0.00 | 0.00 | 0.00 | 74 | 1011.6 |
| 20260901205800 | 18 | 283 | 3.2 | 4.8 | 0.00 | 0.00 | 0.00 | 75 | 1011.4 |
| 20260901205236 | 18 | 302 | 1.6 | 3.2 | 0.00 | 0.00 | 0.00 | 75 | 1011.5 |
| 20260901204722 | 18 | 297 | 0.0 | 3.2 | 0.00 | 0.00 | 0.00 | 75 | 1011.6 |
| 20260901204229 | 18 | 301 | 1.6 | 3.2 | 0.00 | 0.00 | 0.00 | 75 | 1011.6 |
| 20260901203736 | 18 | 281 | 1.6 | 4.8 | 0.00 | 0.00 | 0.00 | 75 | 1011.6 |
| 20260901203303 | 18 | 153 | 1.6 | 4.8 | 0.00 | 0.00 | 0.00 | 76 | 1011.7 |
| 20260901203231 | 18 | 153 | 1.6 | 4.8 | 0.00 | 0.00 | 0.00 | 76 | 1011.7 |
| 20260901202759 | 17 | 66 | 1.6 | 4.8 | 0.00 | 0.00 | 0.00 | 76 | 1011.7 |
| 20260901202236 | 17 | 71 | 0.0 | 3.2 | 0.00 | 0.00 | 0.00 | 77 | 1011.7 |
| 20260901201801 | 17 | 57 | 0.0 | 3.2 | 0.00 | 0.00 | 0.00 | 77 | 1011.6 |
| 20260901201221 | 17 | 56 | 1.6 | 4.8 | 0.00 | 0.00 | 0.00 | 77 | 1011.6 |
| 20260901200728 | 17 | 74 | 1.6 | 4.8 | 0.00 | 0.00 | 0.00 | 77 | 1011.6 |
| 20260901200235 | 17 | 84 | 1.6 | 4.8 | 0.00 | 0.00 | 0.00 | 77 | 1011.6 |
| 20260901195722 | 17 | 85 | 3.2 | 6.4 | 0.00 | 0.00 | 0.00 | 77 | 1011.6 |
| 20260901195231 | 17 | 109 | 3.2 | 9.7 | 0.00 | 0.00 | 0.00 | 77 | 1011.6 |
| 20260901194736 | 17 | 92 | 3.2 | 9.7 | 0.00 | 0.00 | 0.00 | 76 | 1011.7 |
| 20260901194223 | 17 | 146 | 4.8 | 8.0 | 0.00 | 0.00 | 0.00 | 77 | 1011.7 |
| 20260901193730 | 17 | 74 | 4.8 | 8.0 | 0.00 | 0.00 | 0.00 | 77 | 1011.7 |
| 20260901193237 | 17 | 63 | 1.6 | 3.2 | 0.00 | 0.00 | 0.00 | 77 | 1011.8 |
| 20260901192724 | 17 | 84 | 0.0 | 4.8 | 0.00 | 0.00 | 0.00 | 78 | 1011.8 |
| 20260901192253 | 17 | 84 | 1.6 | 8.0 | 0.00 | 0.00 | 0.00 | 78 | 1011.7 |
| 20260901191731 | 17 | 80 | 1.6 | 8.0 | 0.00 | 0.00 | 0.00 | 77 | 1011.7 |
| 20260901191238 | 17 | 51 | 0.0 | 4.8 | 0.00 | 0.00 | 0.00 | 78 | 1011.8 |
| 20260901190806 | 17 | 80 | 1.6 | 8.0 | 0.00 | 0.00 | 0.00 | 77 | 1011.8 |
| 20260901190221 | 17 | 86 | 1.6 | 8.0 | 0.00 | 0.00 | 0.00 | 77 | 1011.8 |
| 20260901185728 | 17 | 86 | 1.6 | 9.7 | 0.00 | 0.00 | 0.00 | 78 | 1011.8 |
| 20260901185231 | 17 | 92 | 3.2 | 9.7 | 0.00 | 0.00 | 0.00 | 77 | 1011.8 |
| 20260901184757 | 17 | 78 | 3.2 | 9.7 | 0.00 | 0.00 | 0.00 | 76 | 1011.8 |
| 20260901184232 | 17 | 83 | 0.0 | 4.8 | 0.00 | 0.00 | 0.00 | 78 | 1011.9 |
| 20260901183739 | 17 | 83 | 0.0 | 4.8 | 0.00 | 0.00 | 0.00 | 77 | 1011.8 |
| 20260901183226 | 17 | 105 | 1.6 | 3.2 | 0.00 | 0.00 | 0.00 | 77 | 1011.8 |
| 20260901182732 | 17 | 236 | 1.6 | 3.2 | 0.00 | 0.00 | 0.00 | 78 | 1011.8 |
| 20260901182240 | 17 | 80 | 0.0 | 4.8 | 0.00 | 0.00 | 0.00 | 79 | 1011.7 |
| 20260901181730 | 17 | 74 | 1.6 | 4.8 | 0.00 | 0.00 | 0.00 | 79 | 1011.7 |
| 20260901181237 | 17 | 134 | 4.8 | 4.8 | 0.00 | 0.00 | 0.00 | 79 | 1011.7 |
| 20260901180805 | 17 | 76 | 3.2 | 4.8 | 0.00 | 0.00 | 0.00 | 80 | 1011.8 |
| 20260901180220 | 16 | 94 | 1.6 | 6.4 | 0.00 | 0.00 | 0.00 | 80 | 1011.7 |
| 20260901175727 | 16 | 130 | 1.6 | 4.8 | 0.00 | 0.00 | 0.00 | 80 | 1011.7 |
| 20260901175255 | 16 | 102 | 1.6 | 4.8 | 0.00 | 0.00 | 0.00 | 81 | 1011.7 |
| 20260901174729 | 16 | 169 | 0.0 | 8.0 | 0.00 | 0.00 | 0.00 | 81 | 1011.7 |
| 20260901174256 | 16 | 92 | 3.2 | 6.4 | 0.00 | 0.00 | 0.00 | 81 | 1011.7 |
| 20260901173732 | 16 | 199 | 1.6 | 4.8 | 0.00 | 0.00 | 0.00 | 81 | 1011.6 |
| 20260901173239 | 16 | 92 | 1.6 | 4.8 | 0.00 | 0.00 | 0.00 | 81 | 1011.6 |
| 20260901172726 | 16 | 63 | 3.2 | 4.8 | 0.00 | 0.00 | 0.00 | 81 | 1011.4 |
| 20260901172234 | 16 | 84 | 1.6 | 4.8 | 0.00 | 0.00 | 0.00 | 82 | 1011.5 |
| 20260901171800 | 16 | 86 | 0.0 | 3.2 | 0.00 | 0.00 | 0.00 | 82 | 1011.4 |
| 20260901171256 | 16 | 96 | 0.0 | 4.8 | 0.00 | 0.00 | 0.00 | 83 | 1011.4 |
| 20260901171225 | 16 | 96 | 0.0 | 4.8 | 0.00 | 0.00 | 0.00 | 83 | 1011.4 |
| 20260901170731 | 16 | 86 | 1.6 | 4.8 | 0.00 | 0.00 | 0.00 | 83 | 1011.4 |
| 20260901170222 | 16 | 93 | 1.6 | 4.8 | 0.00 | 0.00 | 0.00 | 83 | 1011.4 |
| 20260901165729 | 16 | 120 | 0.0 | 4.8 | 0.00 | 0.00 | 0.00 | 84 | 1011.3 |
| 20260901165257 | 15 | 149 | 1.6 | 4.8 | 0.00 | 0.00 | 0.00 | 84 | 1011.4 |
| 20260901165225 | 15 | 149 | 1.6 | 4.8 | 0.00 | 0.00 | 0.00 | 84 | 1011.4 |
| 20260901164731 | 15 | 196 | 1.6 | 4.8 | 0.00 | 0.00 | 0.00 | 84 | 1011.5 |
| 20260901164238 | 15 | 75 | 1.6 | 4.8 | 0.00 | 0.00 | 0.00 | 85 | 1011.6 |
| 20260901163806 | 15 | 182 | 1.6 | 4.8 | 0.00 | 0.00 | 0.00 | 85 | 1011.7 |
| 20260901163301 | 15 | 49 | 1.6 | 3.2 | 0.00 | 0.00 | 0.00 | 85 | 1011.8 |
| 20260901163229 | 15 | 49 | 1.6 | 3.2 | 0.00 | 0.00 | 0.00 | 85 | 1011.8 |
| 20260901162736 | 15 | 63 | 1.6 | 3.2 | 0.00 | 0.00 | 0.00 | 86 | 1011.8 |
| 20260901162224 | 15 | 101 | 0.0 | 4.8 | 0.00 | 0.00 | 0.00 | 87 | 1011.8 |
| 20260901161810 | 15 | 64 | 1.6 | 4.8 | 0.00 | 0.00 | 0.00 | 87 | 1011.8 |
| 20260901161226 | 15 | 42 | 1.6 | 3.2 | 0.00 | 0.00 | 0.00 | 87 | 1011.7 |
| 20260901160732 | 15 | 69 | 1.6 | 3.2 | 0.00 | 0.00 | 0.00 | 88 | 1011.8 |
| 20260901160259 | 14 | 130 | 1.6 | 4.8 | 0.00 | 0.00 | 0.00 | 88 | 1011.9 |
| 20260901155734 | 14 | 94 | 0.0 | 4.8 | 0.00 | 0.00 | 0.00 | 89 | 1011.8 |
| 20260901155222 | 14 | 73 | 0.0 | 4.8 | 0.00 | 0.00 | 0.00 | 90 | 1011.9 |
| 20260901154808 | 14 | 355 | 1.6 | 9.7 | 0.00 | 0.00 | 0.00 | 90 | 1012.0 |
| 20260901154737 | 14 | 355 | 1.6 | 9.7 | 0.00 | 0.00 | 0.00 | 90 | 1012.0 |
| 20260901154223 | 13 | 159 | 1.6 | 9.7 | 0.00 | 0.00 | 0.00 | 90 | 1012.0 |
| 20260901153811 | 13 | 36 | 0.0 | 1.6 | 0.00 | 0.00 | 0.00 | 91 | 1012.1 |
| 20260901153739 | 13 | 36 | 0.0 | 1.6 | 0.00 | 0.00 | 0.00 | 91 | 1012.1 |
| 20260901153230 | 13 | 82 | 0.0 | 3.2 | 0.00 | 0.00 | 0.00 | 91 | 1012.1 |
| 20260901152737 | 13 | 77 | 1.6 | 3.2 | 0.00 | 0.00 | 0.00 | 91 | 1012.0 |
| 20260901152306 | 13 | 71 | 0.0 | 3.2 | 0.00 | 0.00 | 0.00 | 92 | 1012.0 |
| 20260901152233 | 13 | 71 | 0.0 | 3.2 | 0.00 | 0.00 | 0.00 | 92 | 1012.0 |
| 20260901151739 | 13 | 69 | 1.6 | 3.2 | 0.00 | 0.00 | 0.00 | 92 | 1012.0 |
| 20260901151221 | 12 | 104 | 0.0 | 3.2 | 0.00 | 0.00 | 0.00 | 92 | 1012.0 |
| 20260901150728 | 12 | 104 | 0.0 | 3.2 | 0.00 | 0.00 | 0.00 | 93 | 1012.1 |
| 20260901150256 | 12 | 9 | 1.6 | 3.2 | 0.00 | 0.00 | 0.00 | 93 | 1011.9 |
| 20260901145811 | 12 | 43 | 0.0 | 3.2 | 0.00 | 0.00 | 0.00 | 93 | 1011.8 |
| 20260901145227 | 12 | 355 | 0.0 | 3.2 | 0.00 | 0.00 | 0.00 | 93 | 1011.8 |
| 20260901144753 | 12 | 340 | 0.0 | 0.0 | 0.00 | 0.00 | 0.00 | 93 | 1011.9 |
| 20260901144721 | 12 | 340 | 0.0 | 0.0 | 0.00 | 0.00 | 0.00 | 93 | 1011.9 |
| 20260901144228 | 12 | 340 | 0.0 | 0.0 | 0.00 | 0.00 | 0.00 | 93 | 1011.8 |
| 20260901143756 | 12 | 340 | 0.0 | 0.0 | 0.00 | 0.00 | 0.00 | 93 | 1011.7 |
| 20260901143310 | 11 | 340 | 0.0 | 0.0 | 0.00 | 0.00 | 0.00 | 94 | 1011.8 |
| 20260901142806 | 11 | 340 | 0.0 | 0.0 | 0.00 | 0.00 | 0.00 | 94 | 1011.7 |
| 20260901142305 | 11 | 340 | 0.0 | 0.0 | 0.00 | 0.00 | 0.00 | 94 | 1011.7 |
| 20260901141737 | 11 | 340 | 0.0 | 0.0 | 0.00 | 0.00 | 0.00 | 94 | 1011.6 |
| 20260901141224 | 11 | 340 | 0.0 | 0.0 | 0.00 | 0.00 | 0.00 | 93 | 1011.7 |
| 20260901140731 | 11 | 340 | 0.0 | 0.0 | 0.00 | 0.00 | 0.00 | 93 | 1011.6 |
| 20260901140238 | 11 | 340 | 0.0 | 0.0 | 0.00 | 0.00 | 0.00 | 93 | 1011.5 |
| 20260901135729 | 11 | 340 | 0.0 | 0.0 | 0.00 | 0.00 | 0.00 | 93 | 1011.4 |
| 20260901135232 | 11 | 340 | 0.0 | 0.0 | 0.00 | 0.00 | 0.00 | 93 | 1011.4 |
| 20260901134758 | 11 | 340 | 0.0 | 0.0 | 0.00 | 0.00 | 0.00 | 93 | 1011.3 |
| 20260901134233 | 11 | 340 | 0.0 | 0.0 | 0.00 | 0.00 | 0.00 | 93 | 1011.3 |
| 20260901133721 | 11 | 340 | 0.0 | 0.0 | 0.00 | 0.00 | 0.00 | 93 | 1011.3 |
| 20260901133227 | 11 | 340 | 0.0 | 0.0 | 0.00 | 0.00 | 0.00 | 93 | 1011.4 |
| 20260901132729 | 11 | 340 | 0.0 | 0.0 | 0.00 | 0.00 | 0.00 | 92 | 1011.4 |
| 20260901132257 | 11 | 340 | 0.0 | 0.0 | 0.00 | 0.00 | 0.00 | 92 | 1011.4 |
| 20260901131732 | 11 | 340 | 0.0 | 0.0 | 0.00 | 0.00 | 0.00 | 92 | 1011.3 |
| 20260901131259 | 11 | 340 | 0.0 | 0.0 | 0.00 | 0.00 | 0.00 | 92 | 1011.4 |
| 20260901131227 | 11 | 340 | 0.0 | 0.0 | 0.00 | 0.00 | 0.00 | 92 | 1011.4 |
| 20260901130734 | 11 | 340 | 0.0 | 0.0 | 0.00 | 0.00 | 0.00 | 92 | 1011.3 |
| 20260901130220 | 11 | 340 | 0.0 | 0.0 | 0.00 | 0.00 | 0.00 | 92 | 1011.2 |
| 20260901125727 | 11 | 340 | 0.0 | 0.0 | 0.00 | 0.00 | 0.00 | 92 | 1010.9 |
| 20260901125235 | 11 | 340 | 0.0 | 0.0 | 0.00 | 0.00 | 0.00 | 91 | 1011.0 |
| 20260901124725 | 11 | 340 | 0.0 | 0.0 | 0.00 | 0.00 | 0.00 | 91 | 1011.0 |
| 20260901124232 | 11 | 340 | 0.0 | 0.0 | 0.00 | 0.00 | 0.00 | 91 | 1011.0 |
| 20260901123739 | 11 | 340 | 0.0 | 0.0 | 0.00 | 0.00 | 0.00 | 91 | 1011.0 |
| 20260901123226 | 11 | 340 | 0.0 | 0.0 | 0.00 | 0.00 | 0.00 | 91 | 1011.0 |
| 20260901122733 | 12 | 340 | 0.0 | 0.0 | 0.00 | 0.00 | 0.00 | 92 | 1011.0 |
| 20260901122302 | 12 | 340 | 0.0 | 0.0 | 0.00 | 0.00 | 0.00 | 92 | 1010.9 |
| 20260901121736 | 12 | 340 | 0.0 | 0.0 | 0.00 | 0.00 | 0.00 | 93 | 1010.9 |
| 20260901121223 | 12 | 340 | 0.0 | 0.0 | 0.00 | 0.00 | 0.00 | 93 | 1010.8 |
| 20260901120730 | 12 | 340 | 0.0 | 0.0 | 0.00 | 0.00 | 0.00 | 93 | 1010.8 |
| 20260901120237 | 12 | 340 | 0.0 | 0.0 | 0.00 | 0.00 | 0.00 | 93 | 1010.9 |
| 20260901115804 | 11 | 340 | 0.0 | 0.0 | 0.00 | 0.00 | 0.00 | 93 | 1010.7 |
| 20260901115224 | 11 | 340 | 0.0 | 0.0 | 0.00 | 0.00 | 0.00 | 93 | 1010.8 |
| 20260901114730 | 11 | 340 | 0.0 | 0.0 | 0.00 | 0.00 | 0.00 | 93 | 1010.7 |
| 20260901114237 | 11 | 340 | 0.0 | 0.0 | 0.00 | 0.00 | 0.00 | 93 | 1010.5 |
| 20260901113724 | 11 | 340 | 0.0 | 0.0 | 0.00 | 0.00 | 0.00 | 92 | 1010.3 |
| 20260901113310 | 11 | 340 | 0.0 | 0.0 | 0.00 | 0.00 | 0.00 | 92 | 1010.3 |
| 20260901113238 | 11 | 340 | 0.0 | 0.0 | 0.00 | 0.00 | 0.00 | 92 | 1010.3 |
| 20260901112806 | 11 | 340 | 0.0 | 0.0 | 0.00 | 0.00 | 0.00 | 92 | 1010.3 |
| 20260901112734 | 11 | 340 | 0.0 | 0.0 | 0.00 | 0.00 | 0.00 | 92 | 1010.3 |
| 20260901112306 | 11 | 340 | 0.0 | 0.0 | 0.00 | 0.00 | 0.00 | 92 | 1010.2 |
| 20260901112230 | 11 | 340 | 0.0 | 0.0 | 0.00 | 0.00 | 0.00 | 92 | 1010.2 |
| 20260901111736 | 11 | 340 | 0.0 | 0.0 | 0.00 | 0.00 | 0.00 | 92 | 1010.3 |
| 20260901111223 | 11 | 340 | 0.0 | 0.0 | 0.00 | 0.00 | 0.00 | 92 | 1010.2 |
| 20260901110810 | 11 | 340 | 0.0 | 0.0 | 0.00 | 0.00 | 0.00 | 91 | 1010.2 |
| 20260901110226 | 11 | 340 | 0.0 | 0.0 | 0.00 | 0.00 | 0.00 | 91 | 1010.2 |
| 20260901105733 | 12 | 340 | 0.0 | 0.0 | 0.00 | 0.00 | 0.00 | 91 | 1010.2 |
| 20260901105221 | 12 | 340 | 0.0 | 0.0 | 0.00 | 0.00 | 0.00 | 91 | 1010.3 |
| 20260901104727 | 12 | 340 | 0.0 | 0.0 | 0.00 | 0.00 | 0.00 | 91 | 1010.3 |
| 20260901104234 | 12 | 340 | 0.0 | 0.0 | 0.00 | 0.00 | 0.00 | 91 | 1010.3 |
| 20260901103725 | 12 | 340 | 0.0 | 0.0 | 0.00 | 0.00 | 0.00 | 91 | 1010.2 |
| 20260901103232 | 12 | 340 | 0.0 | 0.0 | 0.00 | 0.00 | 0.00 | 91 | 1010.3 |
| 20260901102739 | 12 | 340 | 0.0 | 0.0 | 0.00 | 0.00 | 0.00 | 91 | 1010.2 |
| 20260901102308 | 12 | 340 | 0.0 | 0.0 | 0.00 | 0.00 | 0.00 | 90 | 1010.2 |
| 20260901101802 | 12 | 340 | 0.0 | 0.0 | 0.00 | 0.00 | 0.00 | 90 | 1010.2 |
| 20260901101237 | 12 | 340 | 0.0 | 0.0 | 0.00 | 0.00 | 0.00 | 91 | 1010.1 |
| 20260901100724 | 12 | 340 | 0.0 | 0.0 | 0.00 | 0.00 | 0.00 | 91 | 1010.2 |
| 20260901100231 | 12 | 340 | 0.0 | 0.0 | 0.00 | 0.00 | 0.00 | 90 | 1010.2 |
| 20260901095758 | 12 | 340 | 0.0 | 0.0 | 0.00 | 0.00 | 0.00 | 90 | 1010.0 |
| 20260901095234 | 12 | 340 | 0.0 | 0.0 | 0.00 | 0.00 | 0.00 | 90 | 1010.0 |
| 20260901094720 | 12 | 340 | 0.0 | 0.0 | 0.00 | 0.00 | 0.00 | 90 | 1010.0 |
| 20260901094227 | 12 | 340 | 0.0 | 0.0 | 0.00 | 0.00 | 0.00 | 90 | 1010.0 |
| 20260901093734 | 12 | 340 | 0.0 | 0.0 | 0.00 | 0.00 | 0.00 | 90 | 1010.0 |
| 20260901093225 | 12 | 340 | 0.0 | 0.0 | 0.00 | 0.00 | 0.00 | 89 | 1010.0 |
| 20260901092732 | 12 | 340 | 0.0 | 0.0 | 0.00 | 0.00 | 0.00 | 89 | 1010.0 |
| 20260901092300 | 12 | 340 | 0.0 | 0.0 | 0.00 | 0.00 | 0.00 | 89 | 1010.1 |
| 20260901092229 | 12 | 340 | 0.0 | 0.0 | 0.00 | 0.00 | 0.00 | 89 | 1010.1 |
| 20260901091729 | 13 | 340 | 0.0 | 0.0 | 0.00 | 0.00 | 0.00 | 89 | 1010.1 |
| 20260901091236 | 13 | 340 | 0.0 | 0.0 | 0.00 | 0.00 | 0.00 | 89 | 1010.1 |
| 20260901090723 | 13 | 340 | 0.0 | 0.0 | 0.00 | 0.00 | 0.00 | 89 | 1010.1 |
| 20260901090230 | 13 | 340 | 0.0 | 0.0 | 0.00 | 0.00 | 0.00 | 89 | 1010.1 |
| 20260901085756 | 13 | 340 | 0.0 | 0.0 | 0.00 | 0.00 | 0.00 | 88 | 1010.1 |
| 20260901085232 | 13 | 340 | 0.0 | 0.0 | 0.00 | 0.00 | 0.00 | 88 | 1010.1 |
| 20260901084738 | 13 | 340 | 0.0 | 0.0 | 0.00 | 0.00 | 0.00 | 88 | 1009.9 |
| 20260901084225 | 13 | 340 | 0.0 | 0.0 | 0.00 | 0.00 | 0.00 | 88 | 1009.9 |
| 20260901083732 | 13 | 340 | 0.0 | 0.0 | 0.00 | 0.00 | 0.00 | 88 | 1010.0 |
| 20260901083259 | 13 | 340 | 0.0 | 0.0 | 0.00 | 0.00 | 0.00 | 88 | 1009.9 |
| 20260901082738 | 13 | 340 | 0.0 | 0.0 | 0.00 | 0.00 | 0.00 | 88 | 1009.9 |
| 20260901082226 | 13 | 340 | 0.0 | 0.0 | 0.00 | 0.00 | 0.00 | 88 | 1009.8 |
| 20260901081733 | 13 | 340 | 0.0 | 0.0 | 0.00 | 0.00 | 0.00 | 87 | 1009.9 |
| 20260901081239 | 13 | 340 | 0.0 | 0.0 | 0.00 | 0.00 | 0.00 | 87 | 1009.8 |
| 20260901080726 | 13 | 340 | 0.0 | 0.0 | 0.00 | 0.00 | 0.00 | 87 | 1009.8 |
| 20260901080254 | 13 | 340 | 0.0 | 0.0 | 0.00 | 0.00 | 0.00 | 86 | 1009.7 |
| 20260901075729 | 14 | 340 | 0.0 | 0.0 | 0.00 | 0.00 | 0.00 | 85 | 1009.7 |
| 20260901075232 | 14 | 340 | 0.0 | 0.0 | 0.00 | 0.00 | 0.00 | 85 | 1009.7 |
| 20260901074759 | 14 | 340 | 0.0 | 0.0 | 0.00 | 0.00 | 0.00 | 85 | 1009.7 |
| 20260901074234 | 14 | 340 | 0.0 | 0.0 | 0.00 | 0.00 | 0.00 | 85 | 1009.8 |
| 20260901073721 | 14 | 340 | 0.0 | 0.0 | 0.00 | 0.00 | 0.00 | 85 | 1009.7 |
| 20260901073228 | 14 | 340 | 0.0 | 0.0 | 0.00 | 0.00 | 0.00 | 84 | 1009.7 |
| 20260901072739 | 14 | 340 | 0.0 | 0.0 | 0.00 | 0.00 | 0.00 | 84 | 1009.7 |
| 20260901072227 | 15 | 340 | 0.0 | 0.0 | 0.00 | 0.00 | 0.00 | 84 | 1009.6 |
| 20260901071733 | 15 | 340 | 0.0 | 0.0 | 0.00 | 0.00 | 0.00 | 84 | 1009.7 |
| 20260901071220 | 15 | 340 | 0.0 | 0.0 | 0.00 | 0.00 | 0.00 | 83 | 1009.7 |
| 20260901070727 | 15 | 340 | 0.0 | 1.6 | 0.00 | 0.00 | 0.00 | 83 | 1009.8 |
| 20260901070254 | 15 | 340 | 1.6 | 1.6 | 0.00 | 0.00 | 0.00 | 82 | 1009.7 |
| 20260901065810 | 15 | 271 | 0.0 | 0.0 | 0.00 | 0.00 | 0.00 | 82 | 1009.7 |
| 20260901065226 | 15 | 271 | 0.0 | 0.0 | 0.00 | 0.00 | 0.00 | 82 | 1009.8 |
| 20260901064732 | 15 | 271 | 0.0 | 0.0 | 0.00 | 0.00 | 0.00 | 81 | 1009.7 |
| 20260901064239 | 15 | 271 | 0.0 | 0.0 | 0.00 | 0.00 | 0.00 | 81 | 1009.7 |
| 20260901063726 | 16 | 271 | 0.0 | 0.0 | 0.00 | 0.00 | 0.00 | 80 | 1009.7 |
| 20260901063233 | 16 | 271 | 0.0 | 0.0 | 0.00 | 0.00 | 0.00 | 80 | 1009.7 |
| 20260901062724 | 16 | 271 | 0.0 | 0.0 | 0.00 | 0.00 | 0.00 | 79 | 1009.8 |
| 20260901062253 | 16 | 271 | 0.0 | 0.0 | 0.00 | 0.00 | 0.00 | 79 | 1009.8 |
| 20260901061727 | 16 | 271 | 0.0 | 0.0 | 0.00 | 0.00 | 0.00 | 78 | 1010.0 |
| 20260901061234 | 16 | 271 | 0.0 | 0.0 | 0.00 | 0.00 | 0.00 | 75 | 1010.0 |
| 20260901060721 | 16 | 271 | 0.0 | 0.0 | 0.00 | 0.00 | 0.00 | 75 | 1010.0 |
| 20260901060228 | 16 | 271 | 0.0 | 0.0 | 0.00 | 0.00 | 0.00 | 75 | 1009.9 |
| 20260901055755 | 17 | 271 | 0.0 | 0.0 | 0.00 | 0.00 | 0.00 | 75 | 1009.9 |
| 20260901055723 | 17 | 271 | 0.0 | 0.0 | 0.00 | 0.00 | 0.00 | 75 | 1009.9 |
| 20260901055231 | 17 | 271 | 0.0 | 0.0 | 0.00 | 0.00 | 0.00 | 75 | 1009.8 |
| 20260901054757 | 17 | 271 | 0.0 | 0.0 | 0.00 | 0.00 | 0.00 | 75 | 1009.9 |
| 20260901054725 | 17 | 271 | 0.0 | 0.0 | 0.00 | 0.00 | 0.00 | 75 | 1009.9 |
| 20260901054252 | 17 | 271 | 0.0 | 0.0 | 0.00 | 0.00 | 0.00 | 75 | 1009.9 |
| 20260901054220 | 17 | 271 | 0.0 | 0.0 | 0.00 | 0.00 | 0.00 | 75 | 1009.9 |
| 20260901053727 | 17 | 271 | 0.0 | 0.0 | 0.00 | 0.00 | 0.00 | 75 | 1010.0 |
| 20260901053234 | 17 | 271 | 0.0 | 3.2 | 0.00 | 0.00 | 0.00 | 75 | 1009.9 |
| 20260901052801 | 17 | 271 | 1.6 | 3.2 | 0.00 | 0.00 | 0.00 | 74 | 1009.9 |
| 20260901052729 | 17 | 271 | 1.6 | 3.2 | 0.00 | 0.00 | 0.00 | 74 | 1009.9 |
| 20260901052237 | 17 | 304 | 0.0 | 0.0 | 0.00 | 0.00 | 0.00 | 74 | 1010.0 |
| 20260901051803 | 17 | 304 | 0.0 | 3.2 | 0.00 | 0.00 | 0.00 | 74 | 1010.1 |
| 20260901051239 | 17 | 304 | 0.0 | 3.2 | 0.00 | 0.00 | 0.00 | 74 | 1010.0 |
| 20260901050806 | 17 | 304 | 0.0 | 1.6 | 0.00 | 0.00 | 0.00 | 74 | 1010.0 |
| 20260901050225 | 17 | 304 | 0.0 | 0.0 | 0.00 | 0.00 | 0.00 | 74 | 1009.9 |
| 20260901045732 | 18 | 304 | 0.0 | 1.6 | 0.00 | 0.00 | 0.00 | 73 | 1009.9 |
| 20260901045240 | 18 | 304 | 0.0 | 3.2 | 0.00 | 0.00 | 0.00 | 73 | 1010.0 |
| 20260901044727 | 18 | 309 | 0.0 | 3.2 | 0.00 | 0.00 | 0.00 | 72 | 1010.0 |
| 20260901044253 | 18 | 321 | 0.0 | 3.2 | 0.00 | 0.00 | 0.00 | 72 | 1010.0 |
| 20260901043728 | 18 | 321 | 0.0 | 3.2 | 0.00 | 0.00 | 0.00 | 72 | 1010.0 |
| 20260901043235 | 18 | 329 | 0.0 | 3.2 | 0.00 | 0.00 | 0.00 | 72 | 1010.0 |
| 20260901042723 | 18 | 315 | 1.6 | 3.2 | 0.00 | 0.00 | 0.00 | 71 | 1010.0 |
| 20260901042230 | 18 | 310 | 0.0 | 4.8 | 0.00 | 0.00 | 0.00 | 71 | 1010.0 |
| 20260901041755 | 18 | 296 | 1.6 | 4.8 | 0.00 | 0.00 | 0.00 | 71 | 1010.0 |
| 20260901041311 | 18 | 302 | 0.0 | 3.2 | 0.00 | 0.00 | 0.00 | 71 | 1010.0 |
| 20260901040726 | 18 | 290 | 0.0 | 3.2 | 0.00 | 0.00 | 0.00 | 71 | 1009.9 |
| 20260901040233 | 18 | 290 | 0.0 | 3.2 | 0.00 | 0.00 | 0.00 | 71 | 1009.9 |
| 20260901035724 | 18 | 305 | 0.0 | 3.2 | 0.00 | 0.00 | 0.00 | 71 | 1009.9 |
| 20260901035253 | 18 | 310 | 0.0 | 3.2 | 0.00 | 0.00 | 0.00 | 70 | 1009.9 |
| 20260901034727 | 18 | 310 | 0.0 | 3.2 | 0.00 | 0.00 | 0.00 | 70 | 1010.0 |
| 20260901034255 | 18 | 302 | 0.0 | 3.2 | 0.00 | 0.00 | 0.00 | 70 | 1009.9 |
| 20260901033730 | 18 | 283 | 0.0 | 4.8 | 0.00 | 0.00 | 0.00 | 69 | 1009.8 |
| 20260901033237 | 18 | 307 | 0.0 | 4.8 | 0.00 | 0.00 | 0.00 | 69 | 1009.8 |
| 20260901032805 | 18 | 299 | 0.0 | 3.2 | 0.00 | 0.00 | 0.00 | 68 | 1009.6 |
| 20260901032221 | 19 | 300 | 0.0 | 3.2 | 0.00 | 0.00 | 0.00 | 68 | 1009.7 |
| 20260901031727 | 19 | 310 | 0.0 | 3.2 | 0.00 | 0.00 | 0.00 | 67 | 1009.7 |
| 20260901031234 | 19 | 327 | 1.6 | 3.2 | 0.00 | 0.00 | 0.00 | 67 | 1009.7 |
| 20260901030721 | 19 | 281 | 1.6 | 3.2 | 0.00 | 0.00 | 0.00 | 67 | 1009.5 |
| 20260901030228 | 20 | 297 | 0.0 | 4.8 | 0.00 | 0.00 | 0.00 | 66 | 1009.5 |
| 20260901025735 | 20 | 297 | 0.0 | 4.8 | 0.00 | 0.00 | 0.00 | 66 | 1009.6 |
| 20260901025228 | 20 | 302 | 0.0 | 3.2 | 0.00 | 0.00 | 0.00 | 65 | 1009.5 |
| 20260901024734 | 20 | 296 | 0.0 | 1.6 | 0.00 | 0.00 | 0.00 | 65 | 1009.6 |
| 20260901024221 | 20 | 308 | 0.0 | 0.0 | 0.00 | 0.00 | 0.00 | 65 | 1009.7 |
| 20260901023728 | 20 | 310 | 0.0 | 0.0 | 0.00 | 0.00 | 0.00 | 64 | 1009.7 |
| 20260901023235 | 20 | 310 | 0.0 | 0.0 | 0.00 | 0.00 | 0.00 | 64 | 1009.7 |
| 20260901022722 | 20 | 265 | 0.0 | 1.6 | 0.00 | 0.00 | 0.00 | 64 | 1009.7 |
| 20260901022230 | 20 | 265 | 0.0 | 1.6 | 0.00 | 0.00 | 0.00 | 63 | 1009.7 |
| 20260901021757 | 20 | 292 | 0.0 | 0.0 | 0.00 | 0.00 | 0.00 | 62 | 1009.7 |
| 20260901021232 | 20 | 292 | 0.0 | 3.2 | 0.00 | 0.00 | 0.00 | 62 | 1009.7 |
| 20260901020739 | 20 | 264 | 0.0 | 3.2 | 0.00 | 0.00 | 0.00 | 61 | 1009.7 |
| 20260901020226 | 21 | 261 | 0.0 | 3.2 | 0.00 | 0.00 | 0.00 | 61 | 1009.7 |
| 20260901015737 | 21 | 291 | 0.0 | 6.4 | 0.00 | 0.00 | 0.00 | 60 | 1009.7 |
| 20260901015225 | 21 | 336 | 3.2 | 6.4 | 0.00 | 0.00 | 0.00 | 59 | 1009.7 |
| 20260901014731 | 21 | 243 | 1.6 | 4.8 | 0.00 | 0.00 | 0.00 | 59 | 1009.7 |
| 20260901014237 | 21 | 301 | 1.6 | 8.0 | 0.00 | 0.00 | 0.00 | 58 | 1009.7 |
| 20260901013724 | 22 | 259 | 1.6 | 8.0 | 0.00 | 0.00 | 0.00 | 58 | 1009.7 |
| 20260901013309 | 22 | 319 | 0.0 | 3.2 | 0.00 | 0.00 | 0.00 | 58 | 1009.7 |
| 20260901013237 | 22 | 319 | 0.0 | 3.2 | 0.00 | 0.00 | 0.00 | 58 | 1009.7 |
| 20260901012805 | 22 | 311 | 0.0 | 4.8 | 0.00 | 0.00 | 0.00 | 57 | 1009.8 |
| 20260901012221 | 22 | 300 | 1.6 | 4.8 | 0.00 | 0.00 | 0.00 | 56 | 1009.7 |
| 20260901011727 | 22 | 278 | 1.6 | 4.8 | 0.00 | 0.00 | 0.00 | 56 | 1009.8 |
| 20260901011234 | 22 | 302 | 1.6 | 4.8 | 0.00 | 0.00 | 0.00 | 56 | 1009.8 |
| 20260901010721 | 23 | 350 | 3.2 | 11.3 | 0.00 | 0.00 | 0.00 | 55 | 1009.9 |
| 20260901010227 | 23 | 252 | 3.2 | 11.3 | 0.00 | 0.00 | 0.00 | 54 | 1009.9 |
| 20260901005738 | 23 | 338 | 3.2 | 8.0 | 0.00 | 0.00 | 0.00 | 53 | 1009.8 |
| 20260901005227 | 23 | 275 | 0.0 | 4.8 | 0.00 | 0.00 | 0.00 | 53 | 1009.8 |
| 20260901004732 | 23 | 306 | 1.6 | 8.0 | 0.00 | 0.00 | 0.00 | 53 | 1009.8 |
| 20260901004239 | 23 | 30 | 3.2 | 11.3 | 0.00 | 0.00 | 0.00 | 53 | 1009.7 |
| 20260901003806 | 23 | 342 | 3.2 | 9.7 | 0.00 | 0.00 | 0.00 | 52 | 1009.8 |
| 20260901003734 | 23 | 342 | 3.2 | 9.7 | 0.00 | 0.00 | 0.00 | 52 | 1009.8 |
| 20260901003221 | 23 | 331 | 4.8 | 11.3 | 0.00 | 0.00 | 0.00 | 52 | 1009.9 |
| 20260901002728 | 24 | 285 | 4.8 | 11.3 | 0.00 | 0.00 | 0.00 | 51 | 1009.9 |
| 20260901002256 | 24 | 244 | 3.2 | 12.9 | 0.00 | 0.00 | 0.00 | 51 | 1010.0 |
| 20260901002224 | 24 | 244 | 3.2 | 12.9 | 0.00 | 0.00 | 0.00 | 51 | 1010.0 |
| 20260901001810 | 24 | 342 | 6.4 | 12.9 | 0.00 | 0.00 | 0.00 | 50 | 1010.0 |
| 20260901001225 | 24 | 326 | 3.2 | 12.9 | 0.00 | 0.00 | 0.00 | 51 | 1010.1 |
| 20260901000732 | 24 | 292 | 3.2 | 12.9 | 0.00 | 0.00 | 0.00 | 50 | 1010.1 |
| 20260901000241 | 24 | 284 | 6.4 | 12.9 | 0.00 | 0.00 | 0.00 | 50 | 1010.2 |
| 20260831235726 | 25 | 296 | 4.8 | 11.3 | 0.00 | 0.00 | 0.00 | 49 | 1010.3 |
| 20260831235238 | 25 | 247 | 3.2 | 12.9 | 0.00 | 0.00 | 0.00 | 50 | 1010.3 |
| 20260831234724 | 25 | 324 | 4.8 | 12.9 | 0.00 | 0.00 | 0.00 | 49 | 1010.3 |
| 20260831234231 | 25 | 333 | 4.8 | 8.0 | 0.00 | 0.00 | 0.00 | 49 | 1010.5 |
| 20260831233738 | 25 | 321 | 4.8 | 8.0 | 0.00 | 0.00 | 0.00 | 49 | 1010.5 |
| 20260831233225 | 25 | 28 | 3.2 | 8.0 | 0.00 | 0.00 | 0.00 | 50 | 1010.5 |
| 20260831232732 | 25 | 15 | 3.2 | 11.3 | 0.00 | 0.00 | 0.00 | 50 | 1010.5 |
| 20260831232240 | 25 | 45 | 1.6 | 14.5 | 0.00 | 0.00 | 0.00 | 51 | 1010.5 |
| 20260831231726 | 25 | 9 | 4.8 | 11.3 | 0.00 | 0.00 | 0.00 | 50 | 1010.5 |
| 20260831231233 | 25 | 28 | 3.2 | 8.0 | 0.00 | 0.00 | 0.00 | 51 | 1010.5 |
| 20260831230724 | 24 | 343 | 3.2 | 12.9 | 0.00 | 0.00 | 0.00 | 51 | 1010.6 |
| 20260831230231 | 24 | 339 | 4.8 | 12.9 | 0.00 | 0.00 | 0.00 | 51 | 1010.7 |
| 20260831225758 | 25 | 277 | 3.2 | 12.9 | 0.00 | 0.00 | 0.00 | 50 | 1010.7 |
| 20260831225726 | 25 | 277 | 3.2 | 12.9 | 0.00 | 0.00 | 0.00 | 50 | 1010.7 |
| 20260831225255 | 25 | 297 | 4.8 | 12.9 | 0.00 | 0.00 | 0.00 | 49 | 1010.7 |
| 20260831224729 | 25 | 52 | 3.2 | 16.1 | 0.00 | 0.00 | 0.00 | 49 | 1010.7 |
| 20260831224236 | 25 | 325 | 4.8 | 16.1 | 0.00 | 0.00 | 0.00 | 49 | 1010.8 |
| 20260831223723 | 25 | 292 | 1.6 | 6.4 | 0.00 | 0.00 | 0.00 | 49 | 1010.9 |
| 20260831223230 | 25 | 340 | 1.6 | 11.3 | 0.00 | 0.00 | 0.00 | 51 | 1010.9 |
| 20260831222737 | 24 | 355 | 6.4 | 16.1 | 0.00 | 0.00 | 0.00 | 50 | 1010.9 |
| 20260831222225 | 25 | 9 | 3.2 | 9.7 | 0.00 | 0.00 | 0.00 | 50 | 1011.0 |
| 20260831221731 | 25 | 340 | 1.6 | 8.0 | 0.00 | 0.00 | 0.00 | 50 | 1011.1 |
| 20260831221258 | 24 | 33 | 1.6 | 11.3 | 0.00 | 0.00 | 0.00 | 51 | 1011.1 |
| 20260831221226 | 24 | 33 | 1.6 | 11.3 | 0.00 | 0.00 | 0.00 | 51 | 1011.1 |
| 20260831220753 | 24 | 264 | 4.8 | 16.1 | 0.00 | 0.00 | 0.00 | 51 | 1011.2 |
| 20260831220310 | 24 | 327 | 6.4 | 16.1 | 0.00 | 0.00 | 0.00 | 51 | 1011.3 |
| 20260831220238 | 24 | 327 | 6.4 | 16.1 | 0.00 | 0.00 | 0.00 | 51 | 1011.3 |
| 20260831215805 | 24 | 360 | 3.2 | 17.7 | 0.00 | 0.00 | 0.00 | 52 | 1011.4 |
| 20260831215733 | 24 | 360 | 3.2 | 17.7 | 0.00 | 0.00 | 0.00 | 52 | 1011.4 |
| 20260831215221 | 23 | 47 | 3.2 | 17.7 | 0.00 | 0.00 | 0.00 | 52 | 1011.3 |
| 20260831214728 | 23 | 304 | 3.2 | 8.0 | 0.00 | 0.00 | 0.00 | 52 | 1011.3 |
| 20260831214239 | 23 | 306 | 3.2 | 17.7 | 0.00 | 0.00 | 0.00 | 53 | 1011.5 |
| 20260831213726 | 23 | 339 | 6.4 | 17.7 | 0.00 | 0.00 | 0.00 | 52 | 1011.6 |
| 20260831213253 | 23 | 89 | 3.2 | 14.5 | 0.00 | 0.00 | 0.00 | 52 | 1011.6 |
| 20260831212809 | 23 | 290 | 4.8 | 12.9 | 0.00 | 0.00 | 0.00 | 52 | 1011.8 |